Back to catalog

Rassvet-1 3

AliveScienceSSO
NORAD 57171·PAYLOAD·🇷🇺 Russia

Launched Jun 27, 2023 from Vostochny Cosmodrome

Loading…

Next Passes (next 24 hours)

TLE

FreshSource: Space-Track

Epoch: Sep 14, 2026, 15:08 UTC

1 57171U 23091F   26257.63096471  .00006530  00000-0  26102-3 0  9992
2 57171  97.5016 319.4204 0011455 151.0018 209.1859 15.25399063177794

Track Rassvet-1 3 in real time with AllMySat

Download on the App Store